MOLNIYA 2-9

Last updated on Jan. 25, 2020, 4:43 a.m. UTC

1 07276U 74026A   20024.23031476 -.00000110  00000-0  31243-2 0  9993
2 07276  63.9077   4.6603 6829816 288.7279  12.3328  2.45096822227905
UTC
Height (km)
Latitude
Longitude
Inclination
Orbital Period
UTC large
Height (km)
Speed (km/s)
/
Latitude / Longitude
Inclination (degrees)
Orbital Period (minutes)
Azimuth
Elevation
Range (km)
Doppler Factor
iOS Compass Heading
iOS Angle

Next 30 passes for location: Hong Kong

Rise time Rise Azimuth (degrees) Set time Set Azimuth (degrees) Duration Max altitude (degrees)

No matching passes for this satellites